Home > Weather > Qyzylorda > Past weeks

Flag for Kazakhstan Past Weather in Qyzylorda, Kazakhstan — Yesterday and Last 2 Weeks

Now
77 °F

Sunny.


Feels Like: 77 °F
Forecast: 61 / 88 °F
Wind: 8 mph from Northeast

Location: Kzyl-Orda

Current Time: Aug 24, 2016 at 10:19:08 PM

Latest Report: Aug 24, 2016 at 9:00 PM


Visibility: 10 mi

Pressure: 29.95 "Hg

Humidity: 17%

Dew Point: 28 °F

Location of QyzylordaLocation

Past Weather in Qyzylorda — Graph

°F

Qyzylorda Temperature Yesterday

Maximum temperature yesterday: 84 °F (at 4:00 PM)
Minimum temperature yesterday: 61 °F (at 5:30 AM)
Average temperature yesterday: 74 °F

High & Low Weather Summary for the Past Weeks

 TemperatureHumidityPressure
High99 °F (Aug 10, 3:30 PM)52% (Aug 19, 6:00 AM)30.12 "Hg (Aug 19, 6:00 AM)
Low57 °F (Aug 24, 5:00 AM)8% (Aug 20, 4:00 PM)29.71 "Hg (Aug 10, 5:30 PM)
Average81 °F23%29.88 "Hg
* Reported Aug 9 9:00 PM — Aug 24 9:00 PM, Qyzylorda, Weather by CustomWeather, © 2016

Note: Actual official high and low records may vary slightly from our data, if they occured in-between our weather recording intervals... More about our weather records

Advertising

Qyzylorda Weather History for the Previous 24 Hours

Scroll right to see more
 ConditionsComfort  
Time TempWeatherWind HumidityBarometerVisibility
9:00 PM
Wed, Aug 24
77 °FSunny.8 mph17%29.95 "Hg10 mi
8:00 PM82 °FSunny.10 mph14%29.95 "Hg10 mi
7:30 PM82 °FPassing clouds.15 mph13%29.95 "HgN/A
7:00 PM84 °FSunny.15 mph13%29.95 "Hg10 mi
6:30 PM84 °FSunny.17 mph12%29.95 "Hg10 mi
6:00 PM86 °FSunny.22 mph11%29.95 "Hg10 mi
5:30 PM86 °FSunny.22 mph12%29.95 "Hg10 mi
5:00 PM86 °FPassing clouds.20 mph13%29.95 "HgN/A
4:30 PM86 °FPassing clouds.20 mph13%29.98 "HgN/A
4:00 PM86 °FSunny.24 mph11%29.98 "Hg10 mi
3:30 PM84 °FSunny.24 mph13%29.98 "Hg10 mi
3:00 PM84 °FSunny.24 mph13%29.98 "Hg10 mi
2:30 PM84 °FSunny.24 mph14%30.01 "Hg10 mi
2:00 PM82 °FSunny.24 mph14%30.01 "Hg10 mi
1:30 PM82 °FSunny.24 mph14%30.01 "Hg10 mi
1:00 PM81 °FSunny.22 mph17%30.04 "Hg10 mi
12:30 PM81 °FPassing clouds.17 mph17%30.04 "HgN/A
12:00 PM77 °FSunny.17 mph22%30.04 "Hg10 mi
11:30 AM75 °FPassing clouds.15 mph25%30.07 "HgN/A
11:00 AM73 °FPassing clouds.15 mph27%30.07 "HgN/A
10:30 AM70 °FPassing clouds.15 mph29%30.07 "HgN/A
10:00 AM68 °FSunny.15 mph28%30.07 "Hg10 mi
9:30 AM66 °FSunny.15 mph28%30.07 "Hg10 mi
9:00 AM64 °FSunny.15 mph30%30.07 "Hg10 mi
8:30 AM63 °FSunny.13 mph32%30.07 "Hg10 mi
8:00 AM59 °FSunny.8 mph36%30.07 "Hg10 mi
7:30 AM57 °FClear.8 mph39%30.07 "Hg10 mi
7:00 AM57 °FClear.8 mph39%30.07 "Hg10 mi
6:30 AM57 °FClear.6 mph39%30.07 "Hg10 mi
6:00 AM57 °FClear.8 mph39%30.07 "Hg10 mi
5:30 AM57 °FClear.8 mph39%30.07 "Hg10 mi
5:00 AM57 °FClear.8 mph39%30.07 "Hg10 mi
4:00 AM59 °FClear.8 mph36%30.07 "Hg10 mi
3:00 AM61 °FClear.8 mph34%30.07 "Hg10 mi
2:00 AM64 °FClear.8 mph30%30.07 "Hg10 mi
1:00 AM66 °FClear.8 mph26%30.09 "Hg10 mi
12:00 AM68 °FClear.10 mph23%30.09 "Hg10 mi
11:00 PM
Tue, Aug 23
68 °FClear.8 mph23%30.09 "Hg10 mi
10:00 PM73 °FClear.8 mph17%30.09 "Hg10 mi
Weather by CustomWeather, © 2016

See weather overviewHow to use our weather pages